Regional Weather Roundup
Issued by NWS Northern Indiana

Home | Current Version | Previous Version | Text Only | Print | Product List | Glossary Off
Versions: 1 2 3 4 5 6 7 8 9 10 11 12 13 14 15 16 17 18 19 20 21 22 23 24 25 26 27 28 29 30 31 32 33 34 35 36 37 38 39 40 41 42 43 44 45 46 47 48 49 50

159
ASUS43 KIWX 150000
RWRIWX

KIWX WEATHER ROUNDUP
NATIONAL WEATHER SERVICE NORTHERN INDIANA
700 PM EST THU DEC 14 2017

NOTE: "FAIR" INDICATES FEW OR NO CLOUDS BELOW 12,000 FEET WITH NO
SIGNIFICANT WEATHER AND/OR OBSTRUCTIONS TO VISIBILITY.

* THESE STATIONS ARE NOT UNDER NWS QUALITY CONTROL. THEY ALSO MAY NOT
  REPORT WEATHER SUCH AS PRECIPITATION OR FOG.

INZ001>027-150100-
NORTHERN INDIANA

CITY           SKY/WX    TMP DP  RH WIND       PRES   REMARKS
GARY*          PTCLDY    25  10  54 W7        30.08R WCI  17
MICHIGAN CITY* CLOUDY    23  18  80 SE5       30.07S WCI  17
LAPORTE*       CLOUDY    19  13  76 CALM      30.07S
6HR MIN TEMP:  19; 6HR MAX TEMP:  23;

KNOX*          CLOUDY    23  16  74 SE5       30.07S WCI  17
SOUTH BEND     CLOUDY    20  12  71 S8        30.06S WCI  10
6HR MIN TEMP:  20; 6HR MAX TEMP:  22; 6HR PCP: TRACE;

ELKHART*       CLOUDY    21  12  68 CALM      30.06S
GOSHEN         CLOUDY    21  13  71 S5        30.06S WCI  15
6HR MIN TEMP:  19; 6HR MAX TEMP:  22;

MONTICELLO*    CLOUDY    25  14  62 CALM      30.07S
6HR MIN TEMP:  25; 6HR MAX TEMP:  28;

WARSAW*        CLOUDY    23  12  63 CALM      30.07S
AUBURN*        CLOUDY    18  10  73 CALM      30.08S
FORT WAYNE     CLOUDY    18  11  74 CALM      30.08S
6HR MIN TEMP:  17; 6HR MAX TEMP:  24;

PERU/GRISSOM   CLOUDY    23  15  72 CALM      30.07R
6HR MIN TEMP:  23; 6HR MAX TEMP:  27;


$$
INZ028>050-150100-
CENTRAL INDIANA

CITY           SKY/WX    TMP DP  RH WIND       PRES   REMARKS
LAFAYETTE      MOCLDY    27  15  61 NE3       30.08R
6HR MIN TEMP:  27; 6HR MAX TEMP:  31;

KOKOMO*        CLOUDY    24  16  71 CALM      30.08S
6HR MIN TEMP:  24; 6HR MAX TEMP:  29;

MUNCIE*        CLOUDY    25  12  58 CALM      30.07S
6HR MIN TEMP:  24; 6HR MAX TEMP:  30;

INDIANAPOLIS   MOCLDY    27  10  49 S6        30.07S WCI  20
6HR MIN TEMP:  27; 6HR MAX TEMP:  30;


$$
MIZ043>046-050>051-056>058-064>065-071>073-077>080-150100-
SOUTHWEST LOWER MICHIGAN

CITY           SKY/WX    TMP DP  RH WIND       PRES   REMARKS
BATTLE CREEK   CLOUDY    20  12  71 SW9       30.04R WCI   9
6HR MIN TEMP:  19; 6HR MAX TEMP:  21;

BENTON HARBOR  CLOUDY    22  16  78 S7        30.06R WCI  13
6HR MIN TEMP:  21; 6HR MAX TEMP:  23; 6HR PCP: TRACE;

COLDWATER*     CLOUDY    20  10  67 SW3       30.05S
6HR MIN TEMP:  17; 6HR MAX TEMP:  24;

HILLSDALE*     CLOUDY    19   9  63 SW3       30.03R
HOLLAND        CLOUDY    21  17  84 S6        30.04S WCI  13
6HR MIN TEMP:  19; 6HR MAX TEMP:  22; 6HR PCP: TRACE;

GRAND RAPIDS   LGT SNOW  20  17  88 SW7       30.03R FOG     WCI  11
6HR MIN TEMP:  19; 6HR MAX TEMP:  21; 6HR PCP: TRACE;

KALAMAZOO      CLOUDY    21  13  71 S12       30.05R WCI   9
6HR MIN TEMP:  20; 6HR MAX TEMP:  22; 6HR PCP: TRACE;

STURGIS*       CLOUDY    20  11  68 S3        30.05R
6HR MIN TEMP:  19; 6HR MAX TEMP:  21;

THREE RIVERS*  CLOUDY    22  13  68 SW7       30.06S WCI  13
6HR MIN TEMP:  20; 6HR MAX TEMP:  23;


$$
OHZ001>008-015>018-024>025-150100-
NORTHWEST OHIO

CITY           SKY/WX    TMP DP  RH WIND       PRES   REMARKS
DEFIANCE       MOCLDY    13   6  74 CALM      30.10R
6HR MIN TEMP:  11; 6HR MAX TEMP:  21;

FINDLAY        CLOUDY    14   4  64 W5        30.08R WCI   6
6HR MIN TEMP:  12; 6HR MAX TEMP:  20;

TOLEDO EXPRESS PTCLDY    12   6  77 SW5       30.09R WCI   4
6HR MIN TEMP:  11; 6HR MAX TEMP:  22;

TOLEDO METCALF CLOUDY    12   5  73 SW7       30.10R WCI   1
6HR MIN TEMP:  10; 6HR MAX TEMP:  22;

LIMA           PTCLDY    16  10  77 CALM      30.07R
6HR MIN TEMP:  16; 6HR MAX TEMP:  22;


$$
AND FOR LAKE MICHIGAN COASTAL AND OPEN LAKE BUOY OBSERVATIONS

STATION/POSITION TEMP    WIND        PRES    VSBY  WAVE
                 AIR SEA DIR/SP/G                  HT/PER
                 (F)     (DEG/KT/KT) (MB)    (MI)  (FT/S)
CALUMET HARBOR    26     230/  3/  4 1017.6R
MICHIGAN CITY     26     170/  6/  7   N/A
BURNS HARBOR      27     220/  3/  4 1018.6S
SAINT JOSEPH      22     170/  5/  7 1017.6

$$
&&




USA.gov is the U.S. government's official web portal to all federal, state and local government web resources and services.